This is the latest recevied weather packets stored in our database for station/object IK0TIX. If no packets are shown the sender has not sent any weather packets the latest 10 day(s).
| Time | Temp. | Humidity | Pressure | Rain* | Wind** | Luminosity | Snow |
|---|---|---|---|---|---|---|---|
| 1777763106 | 16.11° C | 68% | 1022.8 hPa | 0 mm | - | - | - |
| 1777761585 | 16.11° C | 67% | 1023.1 hPa | 0 mm | - | - | - |
| 1777760672 | 16.67° C | 67% | 1023.1 hPa | 0 mm | - | - | - |
| 1777757372 | 17.22° C | 65% | 1023 hPa | 0 mm | - | - | - |
| 1777756807 | 17.22° C | 65% | 1023.1 hPa | 0 mm | - | - | - |
| 1777755899 | 17.22° C | 64% | 1023.1 hPa | 0 mm | - | - | - |
| 1777755015 | 17.22° C | 64% | 1023.1 hPa | 0 mm | - | - | - |
| 1777752573 | 17.78° C | 63% | 1023.1 hPa | 0 mm | - | - | - |
| 1777752011 | 17.78° C | 62% | 1023.2 hPa | 0 mm | - | - | - |
| 1777750480 | 17.78° C | 61% | 1022.8 hPa | 0 mm | - | - | - |
| 1777749869 | 17.78° C | 60% | 1022.7 hPa | 0 mm | - | - | - |
| 1777749287 | 18.33° C | 60% | 1022.6 hPa | 0 mm | - | - | - |
| 1777748402 | 18.33° C | 59% | 1022.4 hPa | 0 mm | - | - | - |
| 1777748067 | 18.33° C | 59% | 1022.5 hPa | 0 mm | - | - | - |
| 1777746583 | 18.89° C | 56% | 1022.1 hPa | 0 mm | - | - | - |
| 1777746280 | 18.89° C | 55% | 1022.1 hPa | 0 mm | - | - | - |
| 1777744168 | 20.56° C | 49% | 1021.7 hPa | 0 mm | - | - | - |
| 1777742979 | 20.56° C | 50% | 1021.6 hPa | 0 mm | - | - | - |
| 1777742090 | 21.67° C | 47% | 1021.5 hPa | 0 mm | - | - | - |
| 1777741204 | 21.67° C | 48% | 1021.4 hPa | 0 mm | - | - | - |
| 1777739112 | 21.67° C | 42% | 1021.4 hPa | 0 mm | - | - | - |
| 1777738786 | 21.67° C | 41% | 1021.3 hPa | 0 mm | - | - | - |
| 1777736371 | 22.22° C | 39% | 1021.4 hPa | 0 mm | - | - | - |
| 1777735200 | 22.78° C | 37% | 1021.4 hPa | 0 mm | - | - | - |
| 1777734899 | 22.78° C | 36% | 1021.6 hPa | 0 mm | - | - | - |
* Rain latest hour (hover to see other rain measurements)
** Current wind speed in m/s (hover to see current wind gust speed)